Location: Cowley
(49.5667°N, 114.0667°W)
Time: 11:13:45
(UTC+00:00)

Envisat - Pass Details

Date: 03 December 2021
Orbit: 764 x 766 km, 98.2° (Epoch: 25 January)

Event Time Altitude Azimuth Distance (km) Brightness Sun altitude
Rises 14:27:53 0° 2° (N) 3,247 6.0 -7.3°
Reaches altitude 10° 14:30:58 10° 343° (NNW) 2,316 5.1 -6.9°
Maximum altitude 14:34:07 17° 304° (NW) 1,882 4.4 -6.4°
Drops below altitude 10° 14:37:15 10° 266° (W) 2,306 5.0 -6.0°
Sets 14:40:19 0° 246° (WSW) 3,227 5.9 -5.5°
